Location: Geroldsau
(48.7259°N, 8.2466°E)
Time: 08:24:29
(UTC+00:00)

Meteor 2-3 Rocket - Pass Details

Date: 20 June 2021
Orbit: 842 x 885 km, 81.2° (Epoch: 26 July)

Event Time Altitude Azimuth Distance (km) Brightness Sun altitude
Exits shadow 01:31:26 12° 175° (S) 2,346 5.5 -12.8°
Maximum altitude 01:36:36 62° 97° (E) 952 4.1 -12.4°
Drops below altitude 10° 01:42:06 10° 18° (NNE) 2,473 7.5 -11.9°
Sets 01:44:33 0° 15° (NNE) 3,412 8.5 -11.7°
